Temp
93 85 80 83 84 87 85 76 72 71 78 78 79 73 73 69 65 62 62 64 62 62 64 69 71 72 72 71 72 71 68 68 68 68 68 68 68 69 69 70 67 66 67 68
88 80 88 91 89 86 84 78 70 69 77 76 79 75 74 70 66 65 63 65 64 65 66 67 68 72 71 72 71 70 66 68 67 66 67 68 67 69 66 66 66 68 68 68
81 82 91 88 86 82 81 77 76 76 80 84 79 67 57 56 66 67 69 67 66 60 61 65 67 67 69 69 69 68 68 69 68 68 68 66 66 66 66 66 66 66 68 68
87 91 87 85 82 83 75 83 81 79 75 67 70 43 53 56 55 63 66 65 61 61 65 64 66 63 63 65 68 68 70 66 65 67 65 62 62 61 63 64 62 62 67 66
82 84 84 81 81 84 78 84 81 80 76 70 66 56 54 53 52 59 62 63 63 65 64 63 61 64 67 67 68 70 66 64 65 65 64 63 60 62 59 59 59 59 61 64
86 93 88 85 87 86 86 81 80 80 76 63 69 66 48 55 59 59 61 62 64 64 65 66 68 69 65 67 72 71 67 65 66 65 64 59 58 58 57 56 56 58 62 61
81 73 81 88 81 85 81 73 63 59 60 60 73 57 53 61 64 63 61 62 64 68 67 68 65 68 68 69 70 68 67 64 65 62 62 61 60 58 57 57 58 58 59 59
70 59 72 86 81 76 76 72 62 50 53 60 64 49 48 64 64 67 67 67 68 67 66 64 66 69 69 66 65 65 64 62 60 60 61 60 59 60 60 58 58 58 56 57
71 66 82 84 84 82 74 68 76 64 67 61 54 52 58 65 65 66 63 65 60 64 64 66 68 70 63 65 65 65 62 62 61 61 61 59 59 58 56 56 56 55 57 58
78 67 81 83 85 84 77 80 64 67 52 51 53 50 50 56 59 63 63 63 59 61 67 67 63 64 66 67 63 61 59 59 61 62 60 59 57 58 57 56 56 55 57 57
80 73 73 80 72 70 72 69 70 68 61 53 44 48 64 62 64 64 63 65 66 66 66 67 66 66 66 66 64 61 61 62 62 59 59 58 57 57 57 55 56 55 56 56
78 71 65 71 78 80 76 70 69 59 57 55 53 49 69 68 69 67 66 66 66 66 66 68 65 64 63 62 59 61 60 60 60 60 60 58 58 57 55 55 54 54 55 58
74 68 60 66 69 73 70 72 71 69 66 54 54 50 70 70 68 67 64 66 67 66 66 63 63 62 59 58 60 58 60 61 58 60 60 56 54 53 53 55 56 56 56 59
73 69 65 60 63 70 66 69 70 66 58 60 58 58 61 64 66 65 67 68 68 66 62 61 61 60 57 57 57 58 60 62 58 58 59 56 55 55 54 53 53 56 57 57
73 64 69 70 71 71 69 68 68 65 65 58 61 59 61 66 66 67 68 67 66 62 60 60 59 57 58 56 59 60 60 58 60 59 58 56 57 57 55 55 56 55 55 56
75 62 68 63 70 70 67 70 69 68 67 65 64 60 70 69 68 63 63 64 64 61 58 59 58 58 55 57 58 59 60 60 59 59 55 53 57 58 57 57 56 55 54 54
70 66 63 55 61 67 57 64 66 67 68 64 57 63 69 66 64 61 63 63 61 59 59 59 57 57 57 58 60 59 60 60 59 58 59 57 58 57 57 58 57 55 55 54
69 67 63 57 63 47 62 73 71 66 67 67 66 67 69 67 65 64 64 61 60 59 58 58 59 58 59 61 60 60 60 60 58 57 60 59 58 56 59 59 58 57 57 56
75 63 54 55 57 61 61 66 65 62 57 66 64 67 68 69 63 58 62 62 60 60 60 59 60 60 61 60 61 59 59 60 59 57 60 59 60 60 60 59 58 59 59 58
74 72 64 62 55 46 59 70 74 72 49 64 66 66 65 66 54 54 61 62 61 59 61 60 60 60 61 61 60 58 59 58 58 60 61 61 62 61 60 61 60 61 60 57
62 65 61 59 58 57 65 71 75 52 51 66 68 66 64 59 59 60 63 60 62 60 60 60 61 60 60 61 60 58 57 57 61 63 64 63 61 57 60 60 61 59 59 57
54 56 56 61 55 46 68 69 57 62 68 68 68 66 64 63 62 61 62 60 61 59 61 60 60 60 62 62 60 58 58 60 63 64 63 61 62 63 62 61 61 57 58 56
57 63 59 60 56 67 70 66 70 71 68 67 66 66 66 64 61 61 59 61 59 60 61 61 60 60 62 62 60 59 61 61 63 63 62 64 62 62 62 62 61 61 58 58
68 67 63 61 62 68 70 72 72 71 69 69 69 68 67 61 62 60 60 58 59 58 61 60 61 59 60 61 62 62 63 63 63 61 60 61 65 64 64 66 63 60 59 60
67 68 62 59 64 68 70 71 71 71 71 70 69 68 66 63 61 60 60 60 60 60 62 62 61 58 61 62 61 63 64 64 60 59 60 62 63 62 61 59 55 59 53 52
69 63 60 57 67 67 67 72 73 71 69 70 68 66 66 64 61 61 61 61 61 61 61 61 59 61 62 63 63 64 64 64 61 58 59 63 61 66 66 61 58 45 45 44
MSLP
1003.38 1003.27 1002.90 1003.20 1003.75 1003.57 1004.10 1006.74 1008.17 1008.55 1008.06 1008.07 1008.06 1009.95 1012.19 1014.91 1017.07 1018.66 1020.06 1020.89 1021.56 1021.98 1022.48 1022.36 1022.42 1022.37 1022.36 1022.44 1022.40 1022.47 1022.58 1022.65 1022.43 1022.51 1022.05 1021.80 1021.68 1020.87 1020.55 1020.36 1020.76 1020.91 1020.76 1020.66
1002.62 1002.94 1003.17 1003.07 1003.45 1003.77 1004.08 1005.08 1007.11 1008.14 1007.88 1008.22 1008.18 1009.27 1012.94 1013.93 1016.67 1017.83 1018.94 1019.71 1020.89 1021.32 1021.77 1022.22 1022.34 1022.33 1022.36 1022.09 1022.14 1022.26 1022.45 1022.64 1022.74 1022.72 1022.37 1022.04 1021.79 1021.38 1021.15 1021.13 1020.95 1021.00 1020.68 1020.56
1002.74 1003.97 1003.38 1003.53 1003.37 1003.57 1004.17 1005.25 1005.81 1006.22 1006.55 1006.26 1007.33 1011.31 1012.66 1016.92 1017.42 1018.38 1019.00 1019.84 1020.77 1021.84 1022.10 1022.04 1022.34 1022.51 1022.44 1022.26 1022.33 1022.53 1022.49 1022.51 1022.75 1022.78 1022.45 1022.38 1022.13 1021.69 1021.42 1021.24 1020.97 1020.83 1020.60 1020.41
1002.63 1003.35 1003.79 1003.61 1003.63 1004.56 1004.54 1005.43 1005.74 1005.74 1005.92 1007.15 1009.44 1013.51 1016.51 1018.81 1018.63 1019.35 1019.68 1020.34 1021.42 1022.00 1022.45 1022.57 1022.86 1022.96 1023.19 1023.09 1022.73 1022.61 1022.48 1022.69 1022.83 1022.64 1022.72 1022.81 1022.38 1022.07 1021.97 1021.48 1021.40 1021.15 1020.60 1020.36
1003.27 1003.83 1003.80 1004.01 1004.61 1005.10 1005.20 1005.59 1005.45 1005.16 1005.46 1007.40 1010.03 1013.05 1017.05 1019.01 1019.06 1019.45 1020.52 1020.74 1021.28 1021.72 1022.26 1022.61 1022.96 1023.18 1023.23 1023.24 1022.58 1022.55 1023.02 1023.04 1023.14 1023.17 1023.04 1022.93 1022.91 1022.56 1022.31 1022.03 1021.80 1021.51 1020.93 1020.35
1004.08 1004.62 1004.92 1005.04 1005.08 1005.14 1005.74 1005.78 1005.48 1004.89 1005.42 1006.94 1008.85 1011.79 1017.79 1018.06 1018.59 1020.36 1020.99 1021.19 1021.39 1021.94 1022.28 1022.50 1022.55 1022.64 1022.94 1022.69 1022.40 1022.70 1023.04 1023.44 1023.38 1023.18 1023.20 1023.27 1023.13 1022.83 1022.64 1022.38 1022.13 1021.81 1021.17 1020.85
1005.12 1006.54 1006.88 1006.31 1005.77 1005.70 1006.27 1006.20 1005.71 1006.04 1006.35 1007.55 1009.12 1013.29 1017.49 1018.53 1018.87 1019.62 1020.65 1021.45 1021.74 1021.71 1022.03 1022.06 1022.41 1022.47 1022.68 1022.70 1022.79 1023.15 1023.45 1023.54 1023.54 1023.58 1023.56 1023.48 1023.29 1023.11 1022.80 1022.55 1022.24 1021.86 1021.30 1021.25
1006.20 1008.01 1008.46 1007.14 1006.67 1006.67 1006.93 1007.55 1007.55 1007.76 1008.25 1008.97 1011.31 1015.62 1018.90 1018.84 1019.51 1019.93 1020.47 1021.26 1021.51 1021.98 1022.54 1022.63 1022.83 1022.71 1023.08 1023.67 1023.77 1023.78 1023.93 1024.13 1024.15 1023.90 1023.76 1023.71 1023.56 1023.30 1023.01 1022.87 1022.54 1022.14 1021.83 1021.48
1006.59 1007.33 1007.17 1007.44 1007.44 1007.29 1007.59 1008.16 1008.66 1008.78 1008.76 1009.55 1014.27 1017.88 1019.07 1018.93 1019.31 1019.70 1020.83 1021.47 1022.11 1022.52 1022.80 1022.82 1022.61 1022.91 1024.28 1024.22 1024.16 1024.22 1024.32 1024.37 1024.30 1024.09 1023.88 1023.89 1023.84 1023.64 1023.48 1023.19 1022.80 1022.50 1021.99 1021.53
1007.50 1007.49 1007.00 1007.32 1007.62 1007.90 1008.68 1008.70 1008.84 1009.17 1009.91 1011.10 1014.07 1016.92 1018.26 1018.86 1019.35 1019.95 1020.73 1021.46 1022.27 1022.45 1022.62 1022.82 1023.58 1023.94 1024.21 1024.32 1024.65 1025.09 1024.73 1024.76 1024.56 1024.05 1024.11 1024.23 1024.25 1023.83 1023.55 1023.39 1023.00 1022.77 1022.26 1021.80
1008.54 1008.94 1008.36 1007.97 1008.82 1009.18 1009.21 1009.76 1010.25 1010.61 1011.76 1012.67 1015.08 1017.02 1017.63 1018.51 1019.10 1019.56 1020.50 1021.06 1021.83 1022.28 1022.75 1023.06 1023.80 1024.34 1024.70 1024.84 1025.09 1025.24 1024.97 1024.74 1024.50 1024.61 1024.62 1024.55 1024.41 1023.96 1023.71 1023.52 1023.24 1022.99 1022.49 1022.10
1009.98 1010.24 1009.67 1009.22 1009.89 1010.14 1010.41 1011.05 1011.38 1011.93 1012.44 1014.19 1015.49 1017.35 1017.61 1018.10 1018.64 1019.48 1020.33 1021.31 1022.12 1022.38 1023.02 1023.42 1024.32 1025.05 1025.35 1025.70 1025.93 1025.55 1025.32 1025.04 1024.85 1024.92 1024.68 1024.56 1024.44 1024.17 1023.95 1023.68 1023.48 1023.05 1022.56 1022.08
1011.52 1011.10 1010.86 1009.87 1011.00 1011.43 1011.28 1011.77 1012.31 1012.69 1012.97 1014.58 1014.88 1017.50 1017.83 1018.22 1018.88 1019.73 1021.04 1021.50 1021.75 1022.65 1023.44 1024.46 1025.11 1025.60 1026.12 1026.35 1026.03 1026.06 1025.70 1025.31 1025.29 1025.22 1024.92 1024.90 1024.81 1024.54 1024.21 1023.80 1023.44 1022.99 1022.65 1022.33
1012.59 1012.25 1011.91 1011.51 1011.81 1011.89 1011.67 1012.38 1013.03 1013.42 1014.03 1014.38 1015.65 1017.02 1017.92 1018.56 1019.14 1019.96 1020.69 1021.25 1021.93 1022.90 1024.09 1025.14 1025.67 1026.10 1026.64 1026.66 1026.64 1026.40 1025.88 1025.61 1025.67 1025.43 1025.11 1025.22 1024.95 1024.77 1024.46 1024.07 1023.68 1023.27 1022.86 1022.60
1013.03 1012.64 1012.46 1012.47 1012.78 1012.56 1012.70 1013.18 1013.47 1014.03 1014.64 1015.22 1015.98 1017.13 1018.11 1018.65 1019.37 1020.17 1020.88 1021.85 1022.53 1023.74 1024.88 1025.61 1026.04 1026.69 1026.84 1026.92 1026.73 1026.58 1026.31 1026.10 1025.84 1025.70 1025.54 1025.48 1025.14 1024.89 1024.63 1024.34 1023.98 1023.76 1023.39 1023.07
1013.32 1013.69 1013.43 1013.73 1013.53 1013.48 1013.22 1013.55 1014.05 1014.72 1015.34 1015.94 1016.58 1017.61 1018.18 1019.12 1020.01 1021.35 1022.06 1022.55 1023.13 1024.42 1025.65 1026.10 1026.57 1026.91 1027.26 1027.22 1027.00 1026.83 1026.50 1026.23 1026.09 1025.78 1026.03 1025.75 1025.35 1024.98 1024.76 1024.44 1024.17 1023.97 1023.79 1023.65
1013.56 1013.91 1013.92 1014.78 1014.69 1014.12 1014.78 1015.18 1015.45 1015.78 1016.20 1017.15 1017.74 1018.46 1018.85 1019.51 1020.57 1021.64 1022.48 1023.30 1024.20 1025.15 1026.01 1026.41 1026.93 1027.18 1027.39 1027.27 1027.07 1026.89 1026.66 1026.54 1026.43 1026.13 1025.86 1025.62 1025.29 1025.03 1024.83 1024.46 1024.31 1024.08 1023.99 1023.95
1013.85 1014.13 1014.79 1014.87 1014.54 1015.20 1016.19 1016.18 1016.39 1016.84 1017.26 1018.08 1018.79 1019.15 1019.20 1019.92 1021.31 1022.50 1023.53 1024.40 1025.05 1025.83 1026.44 1026.80 1027.06 1027.29 1027.48 1027.28 1027.30 1027.11 1026.90 1026.56 1026.53 1026.33 1025.90 1025.66 1025.30 1025.12 1024.73 1024.42 1024.25 1024.13 1024.08 1024.10
1014.29 1015.14 1015.87 1015.44 1014.75 1015.98 1016.84 1017.10 1017.34 1017.65 1018.98 1019.51 1019.75 1019.84 1020.10 1020.70 1022.17 1023.79 1024.71 1025.15 1025.97 1026.34 1026.79 1027.16 1027.44 1027.51 1027.47 1027.52 1027.44 1027.36 1027.05 1026.61 1026.63 1026.35 1025.95 1025.80 1025.44 1025.13 1024.77 1024.56 1024.42 1024.17 1024.02 1023.93
1014.55 1014.97 1015.35 1015.25 1015.31 1017.02 1017.96 1017.77 1017.68 1017.76 1019.54 1020.46 1020.48 1020.63 1021.00 1021.43 1022.47 1024.50 1025.44 1025.87 1026.33 1026.97 1027.16 1027.33 1027.57 1027.67 1027.55 1027.53 1027.56 1027.48 1027.08 1026.81 1026.72 1026.45 1026.15 1025.95 1025.69 1025.42 1025.10 1024.75 1024.52 1024.32 1024.05 1023.87
1015.65 1015.22 1015.25 1015.85 1016.15 1018.25 1018.97 1018.46 1017.96 1018.85 1021.08 1021.05 1021.18 1021.56 1021.94 1022.78 1024.08 1025.33 1025.67 1026.46 1026.69 1027.23 1027.40 1027.51 1027.61 1027.56 1027.62 1027.74 1027.60 1027.39 1027.16 1026.95 1026.66 1026.38 1026.10 1025.93 1025.82 1025.57 1025.26 1024.91 1024.52 1024.36 1024.20 1023.90
1017.83 1016.99 1016.97 1016.61 1017.32 1019.37 1019.86 1019.20 1019.98 1021.20 1021.04 1021.51 1021.86 1022.45 1022.93 1023.76 1024.89 1025.66 1026.09 1026.53 1026.87 1027.35 1027.38 1027.50 1027.58 1027.56 1027.52 1027.61 1027.54 1027.29 1027.08 1026.92 1026.61 1026.41 1026.17 1026.08 1025.67 1025.58 1025.24 1024.84 1024.57 1024.41 1024.38 1024.14
1017.79 1017.92 1018.30 1018.88 1019.94 1020.33 1020.59 1020.93 1021.22 1021.38 1021.79 1022.28 1022.66 1023.21 1023.55 1024.12 1025.24 1025.94 1026.52 1026.72 1027.25 1027.47 1027.52 1027.67 1027.67 1027.57 1027.49 1027.55 1027.53 1027.22 1027.07 1026.91 1026.74 1026.63 1026.31 1025.95 1025.70 1025.45 1025.10 1024.87 1024.87 1024.70 1024.56 1024.57
1018.77 1019.06 1019.03 1019.92 1020.72 1020.45 1020.73 1020.93 1021.45 1022.07 1022.50 1022.86 1023.20 1023.62 1024.04 1024.95 1025.58 1026.21 1026.53 1027.20 1027.45 1027.70 1027.45 1027.76 1027.63 1027.58 1027.44 1027.54 1027.37 1027.28 1027.22 1027.14 1026.97 1026.72 1026.50 1026.16 1025.64 1025.41 1025.16 1025.10 1025.44 1025.53 1025.51 1025.30
1020.24 1020.02 1020.57 1021.06 1021.01 1020.97 1021.09 1021.37 1021.82 1022.32 1022.79 1023.10 1023.73 1024.18 1024.50 1025.38 1026.08 1026.49 1026.81 1027.16 1027.38 1027.61 1027.45 1027.63 1027.50 1027.65 1027.48 1027.44 1027.54 1027.45 1027.36 1027.13 1027.07 1026.90 1026.44 1026.07 1025.68 1025.34 1025.59 1026.07 1026.68 1026.62 1026.73 1026.55
1021.03 1021.18 1021.28 1021.38 1021.42 1021.25 1021.53 1021.71 1021.99 1022.30 1022.92 1023.45 1023.86 1024.44 1024.95 1025.67 1026.22 1026.56 1026.88 1027.21 1027.39 1027.43 1027.68 1027.61 1027.71 1027.60 1027.48 1027.51 1027.46 1027.51 1027.43 1027.21 1027.12 1026.97 1026.45 1025.97 1025.77 1025.13 1025.03 1025.71 1026.57 1026.97 1027.06 1026.91
Wind_Speed
13 11 8 7 11 10 9 4 3 3 8 15 5 15 16 21 18 16 12 11 10 10 9 8 7 8 5 7 4 7 8 6 6 8 6 5 7 7 2 3 10 6 5 5
13 1 11 7 7 11 13 5 6 4 10 18 14 8 11 20 18 16 13 11 11 11 11 9 6 5 4 3 7 7 7 7 5 4 5 2 5 7 3 4 4 4 5 4
13 15 8 6 11 10 9 11 12 17 10 17 5 13 19 15 13 13 9 14 10 11 5 6 9 6 4 3 7 6 5 5 3 7 7 6 6 7 5 7 5 6 6 5
7 8 7 8 7 12 9 10 16 18 17 10 8 3 5 5 8 7 11 14 13 11 9 8 10 7 7 9 5 3 4 7 5 6 6 7 6 6 5 5 5 6 4 5
1 5 7 11 12 10 12 16 16 20 20 6 1 5 5 13 11 6 11 11 12 11 11 5 5 6 8 7 3 8 10 9 10 8 6 6 8 8 7 6 8 6 7 6
4 5 5 11 6 3 11 16 23 18 9 3 6 1 7 8 6 14 9 12 11 8 5 2 4 5 2 6 9 7 9 8 8 8 10 11 9 9 7 7 6 6 6 7
6 20 25 7 11 14 20 18 11 10 11 12 6 15 8 16 16 13 10 8 7 4 5 3 6 3 2 11 11 10 11 11 11 11 11 10 10 10 9 8 6 8 5 6
2 1 14 5 8 10 12 13 10 15 14 15 19 8 5 13 11 8 9 8 6 5 10 7 9 11 11 14 11 9 9 11 9 8 9 8 9 7 8 9 8 7 6 5
12 1 15 4 7 12 7 12 13 12 16 9 9 9 3 4 6 7 9 5 3 14 9 7 4 9 15 8 9 9 11 10 10 10 9 10 9 9 9 10 7 6 7 6
11 12 4 8 6 13 13 14 8 8 9 11 10 13 6 9 8 9 7 15 11 6 9 8 13 11 10 12 13 14 12 10 10 8 9 9 10 10 8 8 9 9 8 7
11 7 15 15 3 9 9 11 7 4 3 5 4 7 8 14 10 12 11 11 13 13 8 11 12 13 14 15 13 11 11 10 10 9 10 9 10 9 7 8 7 7 6 6
10 4 7 10 10 5 12 8 9 7 10 10 17 6 10 11 9 12 12 12 9 6 15 13 16 14 14 16 12 10 10 10 8 11 9 8 9 9 9 8 9 7 5 5
10 6 6 1 9 9 5 9 9 9 8 2 4 4 9 10 11 11 12 7 6 14 12 13 12 12 14 10 10 11 8 9 4 10 11 10 9 8 9 9 7 6 7 6
5 4 5 7 8 4 5 9 10 11 8 9 12 13 9 11 11 12 8 9 11 11 14 12 11 12 10 7 8 9 9 9 11 9 10 11 8 9 7 5 7 7 7 6
3 5 5 7 6 6 4 9 6 8 8 7 14 14 9 7 9 11 11 11 12 14 13 10 11 9 9 7 9 9 9 7 8 7 10 9 9 8 7 9 9 10 9 7
4 4 9 10 3 3 2 7 15 13 12 12 10 9 7 11 12 11 9 9 10 12 11 10 10 10 11 8 8 8 8 8 7 8 7 5 7 7 8 8 7 6 7 9
3 1 5 2 16 7 8 13 11 10 12 12 10 11 10 11 7 7 8 11 12 12 7 9 9 6 7 7 6 7 8 7 9 8 10 6 6 8 7 5 6 5 6 5
3 6 7 5 11 3 5 11 12 11 11 11 11 12 11 6 14 13 13 11 10 8 10 9 8 7 6 5 8 7 8 6 5 6 8 10 7 6 5 4 5 6 5 6
3 5 2 4 3 14 11 12 10 8 14 15 13 12 13 11 13 11 9 11 9 9 6 6 6 6 4 7 6 8 8 8 7 6 9 8 8 7 8 8 9 6 4 4
3 6 7 3 4 4 7 12 9 9 6 12 12 12 12 12 6 7 9 8 8 8 6 6 7 4 4 6 7 7 8 6 6 7 7 6 6 7 7 6 3 2 5 4
7 5 3 3 2 8 14 15 12 6 6 10 10 12 11 9 10 9 6 9 5 6 6 5 3 4 5 5 6 7 6 6 5 5 4 4 2 2 4 5 6 6 5 4
7 5 4 8 7 5 14 9 8 7 8 9 10 10 8 11 9 6 6 6 5 4 4 6 3 3 3 6 5 6 5 5 4 4 6 5 4 4 2 4 2 4 2 4
6 8 6 7 6 7 10 9 7 8 8 9 9 7 4 8 7 5 3 4 7 4 2 5 2 3 3 4 5 5 4 3 5 5 2 2 2 2 4 6 7 6 6 5
13 17 9 7 10 9 7 7 9 9 9 8 7 6 7 10 5 3 5 5 2 3 1 3 2 2 3 5 3 4 4 3 4 4 3 3 2 4 6 5 6 6 6 6
9 9 8 7 8 8 9 9 7 7 5 6 7 7 5 7 6 4 4 2 3 1 2 1 1 4 4 5 4 2 1 4 4 6 5 2 6 1 3 5 4 4 3 4
11 9 6 4 8 8 7 6 4 5 7 6 4 4 9 6 4 3 5 3 2 2 4 3 4 3 3 3 4 4 3 2 3 5 4 4 4 5 4 5 4 6 4 6
Wind_Direction
195 218 247 33 222 320 4 139 70 303 300 310 347 143 157 122 128 117 125 124 120 133 148 156 114 95 111 98 71 64 66 35 24 1 350 346 340 325 348 68 38 42 19 346
209 252 238 359 334 316 322 354 84 275 250 255 293 191 142 140 120 121 142 146 142 150 141 137 157 159 132 105 92 76 69 45 38 360 315 6 321 318 349 94 58 6 323 342
119 227 22 319 312 7 25 355 344 325 253 272 296 39 45 37 81 124 124 128 122 80 80 96 62 12 37 47 82 70 76 49 44 15 354 2 356 340 359 349 353 347 330 336
95 74 311 275 51 8 347 353 325 312 308 335 91 258 135 62 59 149 129 101 100 120 116 76 67 53 30 8 32 56 55 46 37 16 356 345 319 326 332 303 349 319 324 291
46 298 275 37 18 355 345 327 296 292 283 69 117 124 80 150 229 143 99 105 115 108 104 103 57 63 10 280 189 48 49 37 37 15 1 345 357 339 328 358 342 350 323 336
105 27 357 356 329 283 294 319 309 294 303 298 125 2 40 31 102 107 102 101 100 105 108 51 109 72 277 264 22 29 48 31 11 356 7 18 3 348 348 359 357 339 334 356
300 13 344 331 338 4 353 334 323 348 325 337 348 67 37 64 64 104 124 116 124 91 32 76 71 37 302 18 12 24 24 3 358 26 8 13 356 345 341 352 345 329 325 0
287 70 230 293 358 348 341 346 345 326 316 301 46 61 34 59 86 102 124 135 88 78 40 53 36 24 4 49 43 30 13 19 19 23 10 357 360 4 360 356 345 339 350 340
317 99 256 81 337 317 11 337 329 285 274 271 123 93 88 134 92 87 108 70 24 64 62 33 24 31 71 43 29 16 31 12 20 7 354 30 19 9 13 351 351 351 352 344
324 338 27 313 8 47 2 327 347 331 322 339 102 81 75 108 109 91 62 76 105 154 73 26 53 49 33 15 45 26 31 21 0 344 25 28 11 350 15 347 1 356 351 359
25 341 314 321 49 1 18 8 349 0 303 340 267 79 78 86 62 78 90 79 60 55 17 43 51 38 15 23 16 23 10 6 358 44 38 11 1 356 1 360 2 341 334 359
55 314 307 336 70 28 59 20 10 347 345 41 325 67 76 60 60 96 91 73 65 21 37 21 36 24 13 26 24 2 9 8 13 40 5 16 4 0 6 358 0 350 326 353
354 33 317 84 80 16 52 20 13 346 294 121 329 96 63 52 79 71 71 64 58 49 38 39 30 14 42 17 3 31 2 17 30 39 17 15 8 3 0 4 4 4 351 15
331 282 281 330 30 301 59 53 11 45 21 349 37 97 60 40 28 104 78 37 28 50 48 45 20 36 37 12 33 359 12 8 36 17 21 20 14 8 4 360 346 11 359 2
13 300 306 68 360 22 43 46 48 26 46 354 24 48 40 31 20 46 43 36 18 46 55 28 30 37 19 25 27 16 3 27 9 38 19 12 357 22 19 22 21 23 24 23
67 335 297 21 67 16 66 66 24 23 6 23 38 59 30 43 53 53 46 16 42 43 53 18 43 30 51 16 10 8 12 13 18 30 48 339 345 23 20 18 32 26 27 29
331 291 273 53 265 253 49 30 28 8 49 43 21 17 4 20 67 118 66 45 52 64 28 30 59 34 36 12 24 7 13 22 15 6 4 8 354 24 360 25 13 25 35 38
285 320 345 202 224 94 97 49 21 1 51 49 27 1 3 42 74 64 45 62 50 46 42 27 40 39 33 21 23 357 5 8 27 351 6 354 11 14 13 28 31 21 31 39
19 94 338 282 187 115 26 34 12 358 53 27 6 355 6 22 106 78 76 61 63 55 47 50 46 52 36 33 5 11 354 353 21 357 8 7 15 35 30 31 32 29 46 42
222 240 267 13 314 113 42 5 6 316 55 2 8 5 3 347 58 72 74 72 66 65 40 32 70 44 29 20 22 350 353 25 0 355 1 1 19 26 15 20 59 3 346 4
292 253 171 148 67 83 7 18 323 39 9 3 18 14 30 37 69 104 76 77 65 66 36 58 66 63 33 13 350 343 343 16 351 2 349 11 66 348 331 327 338 350 4 340
273 71 314 22 25 52 12 34 43 7 8 32 23 29 33 87 86 78 57 70 60 67 20 86 12 49 3 16 347 355 18 338 17 27 12 23 15 31 319 297 347 322 32 352
50 53 60 39 90 81 65 49 47 25 39 29 31 31 7 82 85 86 89 66 62 54 359 89 355 17 13 353 10 1 26 346 30 5 348 110 335 335 301 57 25 32 18 22
67 50 77 70 355 73 52 95 74 43 39 34 41 40 40 93 66 92 73 85 124 99 280 85 323 351 40 10 7 43 27 22 336 342 341 295 46 4 9 49 56 26 18 13
42 36 71 62 7 95 62 56 50 71 50 53 55 45 60 87 77 36 102 100 112 141 56 112 17 40 15 61 60 61 23 360 360 322 278 299 318 76 90 59 23 60 32 13
29 22 55 59 46 29 51 64 68 56 50 37 70 91 85 88 94 56 98 76 87 85 38 339 70 323 91 107 84 44 23 330 328 343 326 337 311 296 183 154 128 52 24 330